Location: 5810 Zion Rd, Cleves, OH 45002, USA
(39.1922°N, 84.7113°W)
Time: 13:22:55
(UTC-05:00)

Courier 1B Rocket - Pass Details

Date: 15 December 2019
Orbit: 920 x 1202 km, 28.2° (Epoch: 18 January)

Event Time Altitude Azimuth Distance (km) Brightness Sun altitude
Rises 05:16:16 0° 237° (WSW) 4,004 - -29.1°
Reaches altitude 10° 05:19:31 10° 227° (SW) 3,004 - -28.5°
Exits shadow 05:22:42 22° 206° (SSW) 2,198 6.6 -27.8°
Maximum altitude 05:25:41 29° 170° (S) 1,854 6.6 -27.3°
Drops below altitude 10° 05:31:31 10° 112° (ESE) 2,830 8.4 -26.2°
Sets 05:34:29 0° 102° (ESE) 3,737 9.4 -25.6°
